Location: Góry Miechowskie
(50.3599°N, 20.1803°E)
Time: 01:33:31
(UTC+00:00)

Vanguard 2 - Pass Details

Date: 14 September 2024
Orbit: 552 x 2910 km, 32.9° (Epoch: 09 October)

Event Time Altitude Azimuth Distance (km) Brightness Sun altitude
Rises 02:29:13 0° 209° (SSW) 3,220 - -16.7°
Exits shadow 02:31:50 - 191° (S) 2,697 10.0 -16.4°
Reaches altitude 10° 02:32:37 10° 184° (S) 2,605 10.0 -16.3°
Maximum altitude 02:35:46 14° 153° (SSE) 2,618 10.3 -15.8°
Drops below altitude 10° 02:39:37 10° 124° (SE) 3,326 11.2 -15.3°
Sets 02:45:05 0° 104° (ESE) 4,875 12.5 -14.5°
